Regional Weather Roundup
Issued by NWS

Home | Current Version | Previous Version | Graphics & Text | Print | Product List | Glossary On
Versions: 1 2 3 4 5 6 7 8 9 10 11 12 13 14 15 16 17 18 19 20 21 22 23 24 25 26 27 28 29 30 31 32 33 34 35 36 37 38 39 40 41 42 43 44 45 46 47 48 49 50
773
ASUS43 KIND 160959
RWRIN

WEATHER ROUNDUP FOR INDIANA
NATIONAL WEATHER SERVICE INDIANAPOLIS IN
500 AM EST MON JAN 16 2017

NOTE: "FAIR" INDICATES FEW OR NO CLOUDS BELOW 12,000 FEET WITH NO
SIGNIFICANT WEATHER AND/OR OBSTRUCTIONS TO VISIBILITY.

* - STATION DOES NOT REPORT WEATHER SUCH AS PRECIPITATION OR FOG.

+ - STATION NOT QUALITY CONTROLLED BY THE NATIONAL WEATHER SERVICE.
    USE DATA WITH CAUTION...ESPECIALLY DEWPOINT AND RELATIVE
    HUMIDITY OBSERVATIONS.

INZ001>003-010>013-019-020-161100-
NORTHWEST INDIANA

CITY           SKY/WX    TMP DP  RH WIND       PRES   REMARKS
KNOX *+        CLOUDY    32  14  47 CALM      30.29R
MONTICELLO +   CLOUDY    32  30  90 SE3       30.27S

$$

LMZ046-743>745-161100-
SOUTHERN LAKE MICHIGAN

STATION/POSITION TIME  TEMP    WIND        PRES    WAVE
                       AIR SEA DIR/SP/G            HT
                 (UTC) (F)     (DEG/KT/KT) (MB)    (FT)
BURNS HARBOR     0940   33     180/  3/  6 1026.1S
MICHIGAN CITY    0930   32     120/  4/  5   N/A

$$

INZ004-005-014>016-021>024-161100-
NORTH CENTRAL INDIANA

CITY           SKY/WX    TMP DP  RH WIND       PRES   REMARKS
GOSHEN         CLOUDY    31  25  78 E3        30.29S HAZE
SOUTH BEND     MIX PCPN  30  25  81 E5        30.28F WCI  25

$$

INZ006>009-017-018-025>027-161100-
NORTHEAST INDIANA

CITY           SKY/WX    TMP DP  RH WIND       PRES   REMARKS
ANGOLA *+      CLOUDY    27  25  93 E3        30.28F
FORT WAYNE     CLOUDY    31  28  89 SE5       30.29F FOG     WCI  26
KENDALLVILLE + CLOUDY    29  26  87 SE5       30.29S WCI  24

$$

INZ028-029-035-036-043>045-051>053-161100-
WEST CENTRAL INDIANA

CITY           SKY/WX    TMP DP  RH WIND       PRES   REMARKS
CRAWFORDSVL +  CLOUDY    33  33 100 E5        30.25F FOG     WCI  28
LAFAYETTE      CLOUDY    34  31  88 E6        30.26F FOG     WCI  29
TERRE HAUTE    CLOUDY    38  35  89 E6        30.24F FOG

$$

INZ030>032-037>040-046>048-054>057-064-065-161100-
CENTRAL INDIANA

CITY           SKY/WX    TMP DP  RH WIND       PRES   REMARKS
INDIANAPOLIS   CLOUDY    36  33  89 E8        30.25F FOG
-EAGLE CREEK   CLOUDY    36  32  85 E7        30.25F
KOKOMO +       CLOUDY    33  31  92 E8        30.28F FOG     WCI  26
MT COMFORT *+  CLOUDY    34  34 100 SE6       30.27F WCI  29
SHELBYVILLE    CLOUDY    38  34  85 E7        30.26F FOG

$$

INZ033-034-041-042-049-050-058-059-161100-
EAST CENTRAL INDIANA

CITY           SKY/WX    TMP DP  RH WIND       PRES   REMARKS
MUNCIE         CLOUDY    34  32  92 SE5       30.27F FOG     WCI  30

$$

INZ060-061-067>069-081>083-085>088-161100-
SOUTHWEST INDIANA

CITY           SKY/WX    TMP DP  RH WIND       PRES   REMARKS
EVANSVILLE     CLOUDY    42  39  89 E3        30.23F
HUNTINGBURG *+ CLOUDY    40  39  97 NE3       30.23F

$$

INZ062-063-066-070>080-084-089>092-161100-
SOUTH CENTRAL AND SOUTHEAST INDIANA

CITY           SKY/WX    TMP DP  RH WIND       PRES   REMARKS
BLOOMINGTON    CLOUDY    38  35  89 E6        30.23F FOG
MADISON *+     CLOUDY    39  37  93 E5        30.27F
SEYMOUR +      CLOUDY    39  39 100 E5        30.26F FOG

$$





USA.gov is the U.S. government's official web portal to all federal, state and local government web resources and services.